Sidney-Richland, MT

2:13 AM MDT on June 25, 2017 (GMT -0600)
Sidney-Richland Municipal

Weather History for KSDY - September, 2013

Change the Weather History Date:

Thursday, September 19, 2013

  Actual Average Record
Temperature  
Mean Temperature 47 °F -  
Max Temperature 55 °F 69 °F 92 °F (1922)
Min Temperature 39 °F 41 °F 26 °F (1957)
Degree Days  
Heating Degree Days 18    
Moisture  
Dew Point 41 °F    
Average Humidity 75    
Maximum Humidity 87    
Minimum Humidity 62    
Precipitation  
Precipitation 0.00 in - - ()
Sea Level Pressure  
Sea Level Pressure 30.01 in    
Wind  
Wind Speed 10 mph (WNW)    
Max Wind Speed 21 mph    
Max Gust Speed 26 mph    
Visibility 10 miles    
Events      
Averages and records for this station are not official NWS values.
T = Trace of Precipitation, MM = Missing Value Source: NWS Daily Summary

Daily Weather History Graph

Daily Weather History Graph

Search for Another Location

Airport or City:

Trip Planner

Search our weather history database for the weather conditions in past years. The results will help you decide how hot, cold, wet, or windy it might be!

Date:

Astronomy

Sep. 19, 2013 Rise Set
Actual Time 6:39 AM MDT 7:00 PM MDT
Civil Twilight 6:08 AM MDT 7:30 PM MDT
Nautical Twilight 5:32 AM MDT 8:07 PM MDT
Astronomical Twilight 4:54 AM MDT 8:44 PM MDT
Moon 6:53 PM MDT (9/19) 6:55 AM MDT (9/19)
Length of Visible Light 13h 21m
Length of Day
12h 20m
Full, 100% of the Moon is Illuminated
Sep 19
Full
Sep 26
Last Quarter
Oct 4
New
Oct 11
First Quarter
Oct 18
Full

Hourly Weather History & Observations

Time (MDT) Temp. Dew Point Humidity Pressure Visibility Wind Dir Wind Speed Gust Speed Precip Events Conditions
12:35 AM 55.4 °F 46.4 °F 72% 29.81 in 10.0 mi WSW 10.4 mph - N/A   Clear
12:55 AM 55.4 °F 46.4 °F 72% 29.81 in 10.0 mi West 8.1 mph - N/A   Clear
1:16 AM 53.6 °F 46.4 °F 77% 29.82 in 10.0 mi West 6.9 mph - N/A   Clear
1:35 AM 53.6 °F 44.6 °F 72% 29.83 in 10.0 mi West 6.9 mph - N/A   Clear
1:55 AM 53.6 °F 44.6 °F 72% 29.83 in 10.0 mi West 6.9 mph - N/A   Clear
2:15 AM 51.8 °F 44.6 °F 76% 29.83 in 10.0 mi WSW 3.5 mph - N/A   Clear
2:35 AM 50.0 °F 42.8 °F 76% 29.84 in 10.0 mi SW 5.8 mph - N/A   Clear
2:55 AM 50.0 °F 44.6 °F 82% 29.84 in 10.0 mi SW 6.9 mph - N/A   Clear
3:15 AM 50.0 °F 42.8 °F 76% 29.85 in 10.0 mi SW 9.2 mph - N/A   Clear
3:35 AM 48.2 °F 41.0 °F 76% 29.85 in 10.0 mi West 9.2 mph - N/A   Clear
3:55 AM 48.2 °F 41.0 °F 76% 29.85 in 10.0 mi WSW 10.4 mph - N/A   Clear
4:35 AM 48.2 °F 41.0 °F 76% 29.87 in 10.0 mi West 12.7 mph - N/A   Scattered Clouds
5:15 AM 50.0 °F 44.6 °F 82% 29.89 in 10.0 mi West 12.7 mph - N/A   Overcast
5:35 AM 51.8 °F 46.4 °F 82% 29.91 in 5.0 mi NW 13.8 mph - N/A   Overcast
5:55 AM 50.0 °F 46.4 °F 87% 29.92 in 10.0 mi NW 15.0 mph 20.7 mph N/A   Overcast
6:15 AM 50.0 °F 44.6 °F 82% 29.94 in 8.0 mi NW 15.0 mph - N/A   Overcast
6:35 AM 50.0 °F 44.6 °F 82% 29.95 in 7.0 mi NW 16.1 mph 21.9 mph N/A   Overcast
6:55 AM 48.2 °F 44.6 °F 87% 29.97 in 5.0 mi NW 15.0 mph 20.7 mph N/A   Overcast
7:15 AM 48.2 °F 44.6 °F 87% 29.97 in 10.0 mi NW 12.7 mph - N/A   Overcast
7:35 AM 48.2 °F 44.6 °F 87% 29.99 in 10.0 mi WNW 11.5 mph - N/A   Mostly Cloudy
7:55 AM 48.2 °F 44.6 °F 87% 29.99 in 10.0 mi WNW 12.7 mph - N/A   Overcast
8:15 AM 48.2 °F 44.6 °F 87% 30.00 in 10.0 mi WNW 11.5 mph 16.1 mph N/A   Overcast
8:35 AM 48.2 °F 44.6 °F 87% 30.01 in 10.0 mi WNW 15.0 mph 19.6 mph N/A   Overcast
8:55 AM 48.2 °F 44.6 °F 87% 30.01 in 10.0 mi WNW 13.8 mph 19.6 mph N/A   Overcast
9:15 AM 50.0 °F 44.6 °F 82% 30.01 in 10.0 mi WNW 17.3 mph 21.9 mph N/A   Overcast
9:35 AM 51.8 °F 44.6 °F 76% 30.02 in 10.0 mi WNW 19.6 mph 24.2 mph N/A   Overcast
9:55 AM 51.8 °F 42.8 °F 71% 30.03 in 10.0 mi WNW 20.7 mph 25.3 mph N/A   Overcast
10:15 AM 51.8 °F 42.8 °F 71% 30.03 in 10.0 mi WNW 18.4 mph 24.2 mph N/A   Mostly Cloudy
10:35 AM 51.8 °F 42.8 °F 71% 30.04 in 10.0 mi NW 17.3 mph 26.5 mph N/A   Overcast
10:55 AM 51.8 °F 42.8 °F 71% 30.05 in 9.0 mi NW 19.6 mph - N/A   Overcast
11:15 AM 51.8 °F 42.8 °F 71% 30.05 in 10.0 mi NW 13.8 mph - N/A   Overcast
11:55 AM 51.8 °F 42.8 °F 71% 30.06 in 10.0 mi NW 17.3 mph 23.0 mph N/A   Mostly Cloudy
12:15 PM 51.8 °F 42.8 °F 71% 30.06 in 10.0 mi WNW 16.1 mph 23.0 mph N/A   Overcast
12:35 PM 51.8 °F 42.8 °F 71% 30.07 in 10.0 mi WNW 16.1 mph 20.7 mph N/A   Overcast
12:55 PM 51.8 °F 41.0 °F 67% 30.08 in 10.0 mi WNW 16.1 mph 20.7 mph N/A   Overcast
1:15 PM 51.8 °F 41.0 °F 67% 30.08 in 10.0 mi WNW 17.3 mph - N/A   Overcast
1:35 PM 51.8 °F 41.0 °F 67% 30.09 in 10.0 mi NNW 13.8 mph - N/A   Overcast
2:15 PM 51.8 °F 41.0 °F 67% 30.09 in 10.0 mi NW 13.8 mph - N/A   Overcast
2:35 PM 51.8 °F 39.2 °F 62% 30.09 in 10.0 mi NW 12.7 mph 17.3 mph N/A   Overcast
2:55 PM 51.8 °F 39.2 °F 62% 30.09 in 10.0 mi NW 13.8 mph 19.6 mph N/A   Overcast
3:15 PM 51.8 °F 39.2 °F 62% 30.10 in 10.0 mi NNW 13.8 mph - N/A   Overcast
3:35 PM 51.8 °F 39.2 °F 62% 30.10 in 10.0 mi NW 10.4 mph - N/A   Overcast
3:55 PM 51.8 °F 39.2 °F 62% 30.10 in 10.0 mi NW 10.4 mph - N/A   Overcast
4:15 PM 51.8 °F 39.2 °F 62% 30.10 in 10.0 mi NNW 8.1 mph - N/A   Overcast
4:35 PM 51.8 °F 39.2 °F 62% 30.10 in 10.0 mi NW 12.7 mph - N/A   Overcast
4:55 PM 51.8 °F 39.2 °F 62% 30.10 in 10.0 mi WNW 11.5 mph - N/A   Overcast
5:15 PM 51.8 °F 39.2 °F 62% 30.10 in 10.0 mi NW 6.9 mph - N/A   Overcast
5:35 PM 51.8 °F 39.2 °F 62% 30.09 in 10.0 mi NW 6.9 mph - N/A   Overcast
5:55 PM 51.8 °F 39.2 °F 62% 30.09 in 10.0 mi North 8.1 mph - N/A   Overcast
6:15 PM 51.8 °F 39.2 °F 62% 30.09 in 10.0 mi North 4.6 mph - N/A   Overcast
6:35 PM 51.8 °F 39.2 °F 62% 30.09 in 10.0 mi North 3.5 mph - N/A   Mostly Cloudy
6:55 PM 50.0 °F 39.2 °F 66% 30.09 in 10.0 mi Calm Calm - N/A   Scattered Clouds
7:35 PM 44.6 °F 37.4 °F 76% 30.08 in 10.0 mi Calm Calm - N/A   Clear
7:55 PM 42.8 °F 37.4 °F 81% 30.08 in 10.0 mi Calm Calm - N/A   Clear
8:15 PM 42.8 °F 37.4 °F 81% 30.08 in 10.0 mi Calm Calm - N/A   Clear
8:35 PM 41.0 °F 37.4 °F 87% 30.09 in 10.0 mi Calm Calm - N/A   Clear
9:15 PM 39.2 °F 35.6 °F 87% 30.10 in 10.0 mi Calm Calm - N/A   Clear
9:35 PM 39.2 °F 35.6 °F 87% 30.10 in 10.0 mi Calm Calm - N/A   Clear
10:15 PM 39.2 °F 35.6 °F 87% 30.10 in 10.0 mi Calm Calm - N/A   Clear
10:35 PM 39.2 °F 35.6 °F 87% 30.11 in 10.0 mi Calm Calm - N/A   Clear
10:55 PM 39.2 °F 35.6 °F 87% 30.11 in 10.0 mi Calm Calm - N/A   Clear
11:15 PM 39.2 °F 33.8 °F 81% 30.10 in 10.0 mi Calm Calm - N/A   Clear
11:35 PM 39.2 °F 35.6 °F 87% 30.10 in 10.0 mi Calm Calm - N/A   Clear
11:55 PM 39.2 °F 35.6 °F 87% 30.10 in 10.0 mi Calm Calm - N/A   Clear